Weather History for Laramie, WY

Change the Weather History Date:

Tuesday, June 25, 2013

  Actual Average Record
Temperature  
Mean Temperature 63 °F 60 °F  
Max Temperature 77 °F 76 °F 93 °F (2012)
Min Temperature 48 °F 44 °F 30 °F (1958)
Degree Days  
Heating Degree Days 2 5  
Month to date heating degree days 103 218  
Since 1 June heating degree days 103 218  
Since 1 July heating degree days 8570 8807  
Cooling Degree Days 0 0  
Month to date cooling degree days 16 0  
Year to date cooling degree days 16 0  
Since 1 June cooling degree days 16 0  
Growing Degree Days 14 (Base 50)    
Moisture  
Dew Point 32 °F    
Average Humidity 37    
Maximum Humidity 54    
Minimum Humidity 20    
Precipitation  
Precipitation 0.00 in 0.04 in 0.82 in (2004)
Month to date precipitation 0.18 1.34  
Year to date precipitation 3.15 5.29  
Sea Level Pressure  
Sea Level Pressure 29.77 in    
Wind  
Wind Speed 13 mph (WSW)    
Max Wind Speed 31 mph    
Max Gust Speed 40 mph    
Visibility 10 miles    
Events      
T = Trace of Precipitation, MM = Missing Value Source: NWS Daily Summary

Daily Weather History Graph

Daily Weather History Graph

Search for Another Location

Airport:

Trip Planner

Search our weather history database for the weather conditions in past years. The results will help you decide how hot, cold, wet, or windy it might be!

Date:

Astronomy

Jun. 25, 2013 Rise Set
Actual Time 5:30 AM MDT 8:39 PM MDT
Civil Twilight 4:56 AM MDT 9:13 PM MDT
Nautical Twilight 4:13 AM MDT 9:57 PM MDT
Astronomical Twilight 3:21 AM MDT 10:48 PM MDT
Moon 10:24 PM MDT (6/25) 8:15 AM MDT (6/25)
Length of Visible Light 16h 16m
Length of Day
15h 09m
Waning Gibbous, 92% of the Moon is Illuminated
Jun 25
Waning Gibbous
Jun 29
Last Quarter
Jul 8
New
Jul 15
First Quarter
Jul 22
Full

Hourly Weather History & Observations

Time (MDT) Temp. Dew Point Humidity Pressure Visibility Wind Dir Wind Speed Gust Speed Precip Events Conditions
12:53 AM 64.0 °F 28.0 °F 26% 29.63 in 10.0 mi WSW 10.4 mph - N/A   Partly Cloudy
1:53 AM 61.0 °F 28.0 °F 29% 29.65 in 10.0 mi West 4.6 mph - N/A   Mostly Cloudy
2:53 AM 60.1 °F 28.9 °F 31% 29.63 in 10.0 mi SW 5.8 mph - N/A   Partly Cloudy
3:53 AM 54.0 °F 30.9 °F 41% 29.65 in 10.0 mi South 3.5 mph - N/A   Clear
4:53 AM 50.0 °F 28.9 °F 44% 29.69 in 10.0 mi West 8.1 mph - N/A   Clear
5:53 AM 52.0 °F 32.0 °F 47% 29.71 in 10.0 mi WNW 9.2 mph - N/A   Clear
6:53 AM 59.0 °F 33.1 °F 38% 29.70 in 10.0 mi WSW 6.9 mph - N/A   Clear
7:53 AM 62.1 °F 35.1 °F 37% 29.72 in 10.0 mi SW 10.4 mph - N/A   Clear
8:53 AM 64.9 °F 36.0 °F 34% 29.75 in 10.0 mi West 16.1 mph - N/A   Clear
9:53 AM 66.9 °F 35.1 °F 31% 29.77 in 10.0 mi WNW 16.1 mph 23.0 mph N/A   Partly Cloudy
10:53 AM 72.0 °F 33.1 °F 24% 29.75 in 10.0 mi West 24.2 mph 34.5 mph N/A   Partly Cloudy
11:53 AM 72.0 °F 30.9 °F 22% 29.73 in 10.0 mi West 21.9 mph 40.3 mph N/A   Partly Cloudy
12:53 PM 75.9 °F 33.1 °F 21% 29.72 in 10.0 mi WSW 23.0 mph 29.9 mph N/A   Partly Cloudy
1:53 PM 75.0 °F 33.1 °F 22% 29.75 in 10.0 mi West 19.6 mph 28.8 mph N/A   Overcast
2:53 PM 73.9 °F 33.1 °F 22% 29.77 in 10.0 mi West 17.3 mph 28.8 mph N/A   Overcast
3:53 PM 73.9 °F 33.1 °F 22% 29.80 in 10.0 mi West 26.5 mph 34.5 mph N/A   Overcast
4:53 PM 73.9 °F 33.1 °F 22% 29.81 in 10.0 mi West 20.7 mph 27.6 mph N/A   Mostly Cloudy
5:53 PM 77.0 °F 34.0 °F 21% 29.79 in 10.0 mi West 15.0 mph 34.5 mph N/A   Overcast
6:53 PM 75.0 °F 32.0 °F 21% 29.79 in 10.0 mi West 20.7 mph - N/A   Overcast
7:53 PM 72.0 °F 32.0 °F 23% 29.81 in 10.0 mi West 19.6 mph - N/A   Partly Cloudy
8:53 PM 63.0 °F 32.0 °F 31% 29.84 in 10.0 mi WSW 6.9 mph - N/A   Clear
9:39 PM 60.8 °F 30.2 °F 31% 30.17 in 10.0 mi WSW 6.9 mph - N/A   Partly Cloudy
9:53 PM 59.0 °F 30.9 °F 35% 29.87 in 10.0 mi WSW 8.1 mph - N/A   Partly Cloudy
10:53 PM 57.0 °F 30.9 °F 37% 29.86 in 10.0 mi West 8.1 mph - N/A   Clear
11:53 PM 52.0 °F 35.1 °F 53% 29.90 in 10.0 mi South 6.9 mph - N/A   Clear